Weather History for KCLK - January, 2012

Change the Weather History Date:

Sunday, January 8, 2012

  Actual Average (KCSM) Record (KCSM)
Temperature  
Mean Temperature 39 °F -  
Max Temperature 48 °F 46 °F 75 °F (2002)
Min Temperature 30 °F 27 °F 12 °F (2015)
Degree Days  
Heating Degree Days 26    
Moisture  
Dew Point 25 °F    
Average Humidity 58    
Maximum Humidity 75    
Minimum Humidity 43    
Precipitation  
Precipitation 0.00 in - - ()
Sea Level Pressure  
Sea Level Pressure 30.14 in    
Wind  
Wind Speed 11 mph (NNE)    
Max Wind Speed 20 mph    
Max Gust Speed 23 mph    
Visibility 10 miles    
Events      
Averages and records for this station are not official NWS values.
T = Trace of Precipitation, MM = Missing Value Source: NWS Daily Summary

Daily Weather History Graph

Daily Weather History Graph

Search for Another Location

Airport or City:

Trip Planner

Search our weather history database for the weather conditions in past years. The results will help you decide how hot, cold, wet, or windy it might be!

Date:

Astronomy

Jan. 08, 2012 Rise Set
Actual Time 7:45 AM CST 5:39 PM CST
Civil Twilight 7:17 AM CST 6:07 PM CST
Nautical Twilight 6:45 AM CST 6:38 PM CST
Astronomical Twilight 6:15 AM CST 7:09 PM CST
Moon 5:23 PM CST (1/8) 7:05 AM CST (1/8)
Length of Visible Light 10h 49m
Length of Day
9h 53m
Full, 100% of the Moon is Illuminated
Jan 8
Full
Jan 9
Full
Jan 16
Last Quarter
Jan 23
New
Jan 30
First Quarter

Hourly Weather History & Observations

Time (CST) Temp. Windchill Dew Point Humidity Pressure Visibility Wind Dir Wind Speed Gust Speed Precip Events Conditions
12:15 AM 33.8 °F 25.8 °F 24.8 °F 70% 30.09 in 10.0 mi NNE 10.4 mph - N/A   Clear
12:35 AM 35.6 °F 28.0 °F 23.0 °F 60% 30.09 in 10.0 mi NNE 10.4 mph - N/A   Clear
12:55 AM 33.8 °F 26.4 °F 23.0 °F 65% 30.09 in 10.0 mi NNE 9.2 mph - N/A   Clear
1:15 AM 33.8 °F 27.0 °F 23.0 °F 65% 30.09 in 10.0 mi NNE 8.1 mph - N/A   Clear
1:35 AM 32.0 °F 24.2 °F 23.0 °F 69% 30.09 in 10.0 mi NNE 9.2 mph - N/A   Clear
1:55 AM 33.8 °F 25.3 °F 23.0 °F 65% 30.09 in 10.0 mi NE 11.5 mph - N/A   Clear
2:15 AM 33.8 °F 25.8 °F 23.0 °F 65% 30.09 in 10.0 mi NE 10.4 mph - N/A   Clear
2:35 AM 33.8 °F 25.8 °F 23.0 °F 65% 30.09 in 10.0 mi NE 10.4 mph - N/A   Clear
2:55 AM 33.8 °F 25.8 °F 23.0 °F 65% 30.09 in 10.0 mi NE 10.4 mph - N/A   Clear
3:15 AM 33.8 °F 26.4 °F 23.0 °F 65% 30.09 in 10.0 mi North 9.2 mph - N/A   Scattered Clouds
3:35 AM 32.0 °F 24.2 °F 23.0 °F 69% 30.10 in 10.0 mi NNE 9.2 mph - N/A   Scattered Clouds
3:55 AM 32.0 °F 24.2 °F 23.0 °F 69% 30.09 in 10.0 mi NNE 9.2 mph - N/A   Clear
4:15 AM 32.0 °F 24.2 °F 23.0 °F 69% 30.10 in 10.0 mi North 9.2 mph - N/A   Clear
4:35 AM 32.0 °F 24.2 °F 23.0 °F 69% 30.10 in 10.0 mi North 9.2 mph - N/A   Clear
4:55 AM 32.0 °F 23.6 °F 23.0 °F 69% 30.09 in 10.0 mi North 10.4 mph - N/A   Clear
5:15 AM 32.0 °F 23.6 °F 23.0 °F 69% 30.10 in 10.0 mi North 10.4 mph - N/A   Clear
5:35 AM 32.0 °F 23.6 °F 23.0 °F 69% 30.10 in 10.0 mi North 10.4 mph - N/A   Clear
5:55 AM 32.0 °F 23.6 °F 23.0 °F 69% 30.10 in 10.0 mi North 10.4 mph - N/A   Clear
6:15 AM 32.0 °F 23.6 °F 23.0 °F 69% 30.10 in 10.0 mi NNE 10.4 mph - N/A   Clear
6:35 AM 32.0 °F 23.6 °F 23.0 °F 69% 30.11 in 10.0 mi North 10.4 mph - N/A   Clear
6:55 AM 32.0 °F 24.2 °F 23.0 °F 69% 30.12 in 10.0 mi North 9.2 mph - N/A   Clear
7:15 AM 32.0 °F 27.5 °F 23.0 °F 69% 30.13 in 10.0 mi NNW 4.6 mph - N/A   Clear
7:35 AM 32.0 °F 28.7 °F 23.0 °F 69% 30.14 in 10.0 mi NNW 3.5 mph - N/A   Clear
7:55 AM 30.2 °F 23.4 °F 23.0 °F 75% 30.14 in 10.0 mi North 6.9 mph - N/A   Clear
8:15 AM 30.2 °F 24.3 °F 23.0 °F 75% 30.15 in 10.0 mi North 5.8 mph - N/A   Clear
8:35 AM 32.0 °F 25.6 °F 23.0 °F 69% 30.16 in 10.0 mi North 6.9 mph - N/A   Clear
8:55 AM 32.0 °F 24.8 °F 24.8 °F 75% 30.16 in 10.0 mi North 8.1 mph - N/A   Clear
9:15 AM 33.8 °F 24.8 °F 24.8 °F 70% 30.17 in 10.0 mi North 12.7 mph - N/A   Clear
9:35 AM 35.6 °F 27.1 °F 24.8 °F 65% 30.17 in 10.0 mi North 12.7 mph - N/A   Clear
9:55 AM 37.4 °F 29.3 °F 24.8 °F 60% 30.18 in 10.0 mi NNE 12.7 mph - N/A   Clear
10:15 AM 37.4 °F 29.8 °F 24.8 °F 60% 30.19 in 10.0 mi North 11.5 mph - N/A   Clear
10:35 AM 39.2 °F 32.0 °F 24.8 °F 56% 30.20 in 10.0 mi North 11.5 mph - N/A   Scattered Clouds
10:55 AM 41.0 °F 33.9 °F 24.8 °F 53% 30.19 in 10.0 mi NNE 12.7 mph - N/A   Overcast
11:15 AM 42.8 °F 36.2 °F 26.6 °F 53% 30.19 in 10.0 mi North 12.7 mph - N/A   Scattered Clouds
11:35 AM 44.6 °F 38.1 °F 26.6 °F 49% 30.19 in 10.0 mi NNE 13.8 mph - N/A   Clear
11:55 AM 44.6 °F 38.8 °F 26.6 °F 49% 30.17 in 10.0 mi North 11.5 mph 17.3 mph N/A   Clear
12:15 PM 44.6 °F 38.4 °F 26.6 °F 49% 30.17 in 10.0 mi NNE 12.7 mph - N/A   Mostly Cloudy
12:35 PM 44.6 °F 39.2 °F 26.6 °F 49% 30.16 in 10.0 mi North 10.4 mph - N/A   Overcast
12:55 PM 44.6 °F 39.7 °F 26.6 °F 49% 30.16 in 10.0 mi North 9.2 mph - N/A   Overcast
1:15 PM 46.4 °F 42.4 °F 26.6 °F 46% 30.16 in 10.0 mi NNE 8.1 mph - N/A   Overcast
1:35 PM 48.2 °F - 26.6 °F 43% 30.14 in 10.0 mi NNE 10.4 mph - N/A   Overcast
1:55 PM 48.2 °F - 26.6 °F 43% 30.14 in 10.0 mi NNE 11.5 mph - N/A   Overcast
2:15 PM 48.2 °F - 26.6 °F 43% 30.14 in 10.0 mi NNE 13.8 mph - N/A   Overcast
2:35 PM 48.2 °F - 26.6 °F 43% 30.14 in 10.0 mi NNE 13.8 mph - N/A   Overcast
2:55 PM 46.4 °F 39.8 °F 26.6 °F 46% 30.14 in 10.0 mi NNE 16.1 mph 19.6 mph N/A   Overcast
3:15 PM 46.4 °F 39.8 °F 24.8 °F 43% 30.15 in 10.0 mi NE 16.1 mph 20.7 mph N/A   Overcast
3:35 PM 46.4 °F 40.1 °F 26.6 °F 46% 30.15 in 10.0 mi NNE 15.0 mph - N/A   Overcast
3:55 PM 46.4 °F 40.4 °F 26.6 °F 46% 30.15 in 10.0 mi NNE 13.8 mph 19.6 mph N/A   Overcast
4:15 PM 46.4 °F 39.8 °F 26.6 °F 46% 30.15 in 10.0 mi NNE 16.1 mph - N/A   Overcast
4:35 PM 46.4 °F 40.1 °F 26.6 °F 46% 30.15 in 10.0 mi NNE 15.0 mph - N/A   Overcast
4:55 PM 46.4 °F 40.1 °F 24.8 °F 43% 30.16 in 10.0 mi NNE 15.0 mph - N/A   Overcast
5:15 PM 46.4 °F 41.5 °F 26.6 °F 46% 30.17 in 10.0 mi NNE 10.4 mph - N/A   Overcast
5:55 PM 44.6 °F 38.1 °F 26.6 °F 49% 30.17 in 10.0 mi NE 13.8 mph - N/A   Overcast
6:15 PM 44.6 °F 38.1 °F 26.6 °F 49% 30.18 in 10.0 mi NNE 13.8 mph - N/A   Overcast
6:35 PM 44.6 °F 39.2 °F 26.6 °F 49% 30.19 in 10.0 mi NNE 10.4 mph - N/A   Overcast
6:55 PM 44.6 °F 38.8 °F 26.6 °F 49% 30.19 in 10.0 mi NNE 11.5 mph - N/A   Overcast
7:15 PM 44.6 °F 38.4 °F 26.6 °F 49% 30.20 in 10.0 mi NNE 12.7 mph - N/A   Overcast
7:35 PM 44.6 °F 37.8 °F 26.6 °F 49% 30.21 in 10.0 mi NNE 15.0 mph - N/A   Overcast
7:55 PM 44.6 °F 37.2 °F 24.8 °F 46% 30.20 in 10.0 mi NNE 17.3 mph 20.7 mph N/A   Overcast
8:15 PM 42.8 °F 34.5 °F 24.8 °F 49% 30.21 in 10.0 mi NNE 18.4 mph - N/A   Overcast
8:35 PM 42.8 °F 34.3 °F 24.8 °F 49% 30.22 in 10.0 mi NNE 19.6 mph 23.0 mph N/A   Overcast
8:55 PM 42.8 °F 34.8 °F 23.0 °F 46% 30.22 in 10.0 mi NNE 17.3 mph - N/A   Overcast
9:15 PM 42.8 °F 34.8 °F 23.0 °F 46% 30.22 in 10.0 mi NNE 17.3 mph - N/A   Overcast
10:15 PM 42.8 °F 35.8 °F 23.0 °F 46% 30.24 in 10.0 mi NNE 13.8 mph - N/A   Overcast
10:35 PM 41.0 °F 33.1 °F 23.0 °F 49% 30.25 in 10.0 mi NNE 15.0 mph - N/A   Overcast
10:55 PM 41.0 °F 33.1 °F 23.0 °F 49% 30.25 in 10.0 mi NNE 15.0 mph - N/A   Overcast
11:15 PM 37.4 °F 29.8 °F 23.0 °F 56% 30.25 in 10.0 mi North 11.5 mph - N/A   Mostly Cloudy
11:55 PM 35.6 °F 30.7 °F 23.0 °F 60% 30.25 in 10.0 mi NW 5.8 mph - N/A   Scattered Clouds